Location: Shepherdstown, WV
(39.4326°N, 77.8042°W)
Time: 03:11:02
(UTC-04:00)

Vanguard 1 - Pass Details

Date: 30 September 2021
Orbit: 653 x 3829 km, 34.2° (Epoch: 18 October)

Event Time Altitude Azimuth Distance (km) Brightness Sun altitude
Rises 20:44:41 0° 261° (W) 5,567 15.1 -21.9°
Reaches altitude 10° 20:47:41 10° 260° (W) 4,897 14.5 -22.4°
Maximum altitude 21:03:18 75° 178° (S) 3,383 12.5 -25.3°
Enters shadow 21:15:54 36° 103° (ESE) 4,979 13.0 -27.6°
